Stations météo

réclame
Mon MeteoGroup
Shoeburyness Landwick, Grande-Bretagne (3693): Température de l'air & dewpoint: 16.10.2017 00:00:00 - 22.10.2017 00:00:00 (BST)Shoeburyness Landwick, Grande-Bretagne (3693): Température de l'air -20cm & Température de l'air -100cm: 16.10.2017 00:00:00 - 22.10.2017 00:00:00 (BST)Shoeburyness Landwick, Grande-Bretagne (3693): Vitesse du vent & gusts: 16.10.2017 00:00:00 - 22.10.2017 00:00:00 (BST)Shoeburyness Landwick, Grande-Bretagne (3693): Direction du vent: 16.10.2017 00:00:00 - 22.10.2017 00:00:00 (BST)Shoeburyness Landwick, Grande-Bretagne (3693): reduced air pressure: 16.10.2017 00:00:00 - 22.10.2017 00:00:00 (BST)Shoeburyness Landwick, Grande-Bretagne (3693): visibility: 16.10.2017 00:00:00 - 22.10.2017 00:00:00 (BST)Shoeburyness Landwick, Grande-Bretagne (3693): Ensoleillement: 16.10.2017 00:00:00 - 22.10.2017 00:00:00 (BST)Shoeburyness Landwick, Grande-Bretagne (3693): Quantités de précipitations: 16.10.2017 00:00:00 - 22.10.2017 00:00:00 (BST)
Date & Time tt [°C] td [°C] tt -20cm [°C] tt -100cm [°C] ff [km/h] ff [knt] fx [km/h] fx [knt] dd ppp [hPa] vv [km] sd [min] rr [mm]
22.10.2017 00:00:00 12,7 9,2 - - 29 16 46 25 W 1003,7 24 0 0,0
21.10.2017 23:00:00 12,8 9,9 - - 26 14 - - WSW 1003,1 28 0 0,0
21.10.2017 22:00:00 12,9 9,2 - - 28 15 48 26 SW 1002,6 18 0 0,0
21.10.2017 21:00:00 13,2 8,5 - - 31 17 55 30 SW 1002,5 14 0 0,0
21.10.2017 20:00:00 13,1 8,3 - - 35 19 61 33 SW 1002,8 12 0 0,0
21.10.2017 19:00:00 13,3 8,0 - - 35 19 61 33 SW 1002,7 12 0 0,0
21.10.2017 18:00:00 13,9 7,5 - - 41 22 63 34 SW 1002,7 12 0 0,0
21.10.2017 17:00:00 14,5 7,9 - - 37 20 74 40 SW 1002,9 12 36 0,0
21.10.2017 16:00:00 14,6 8,5 - - 37 20 65 35 SW 1003,0 14 42 0,0
21.10.2017 15:00:00 15,7 8,5 - - 37 20 57 31 SW 1002,9 12 36 0,0
21.10.2017 14:00:00 14,9 10,3 - - 35 19 63 34 SW 1002,8 15 42 0,0
21.10.2017 13:00:00 14,2 9,6 - - 41 22 65 35 SW 1003,5 8 36 0,0
21.10.2017 12:00:00 15,8 9,6 - - 44 24 63 34 SW 1003,3 13 48 0,0
21.10.2017 11:00:00 14,6 10,3 - - 42 23 59 32 SSW 1003,8 12 54 0,0
21.10.2017 10:00:00 14,2 10,6 14,0 14,7 31 17 50 27 SSW 1004,2 10 60 0,0
21.10.2017 09:00:00 13,1 10,7 - - 28 15 48 26 SSW 1003,7 13 6 0,0
21.10.2017 08:00:00 13,3 11,3 - - 26 14 - - SW 1003,6 12 0 0,0
21.10.2017 07:00:00 13,5 11,3 - - 22 12 54 29 WSW 1003,6 19 0 -
21.10.2017 06:00:00 14,2 12,5 - - 22 12 - - SW 1003,1 14 0 -
21.10.2017 05:00:00 14,9 12,8 - - 29 16 48 26 SW 1002,8 35 0 -
21.10.2017 04:00:00 14,5 14,0 - - 31 17 - - SSW 1002,8 10 0 -
21.10.2017 03:00:00 14,0 13,1 - - 24 13 48 26 S 1003,7 13 0 -
21.10.2017 02:00:00 14,5 11,8 - - 39 21 50 27 S 1004,5 14 0 -
21.10.2017 01:00:00 14,7 11,3 - - 31 17 - - S 1005,6 16 - -
21.10.2017 00:00:00 14,4 11,0 - - 28 15 - - S 1006,4 17 0 -
20.10.2017 23:00:00 13,8 10,2 - - 22 12 - - S 1007,5 18 0 -
20.10.2017 22:00:00 12,8 9,6 - - 21 11 - - S 1008,4 19 0 -
20.10.2017 21:00:00 12,0 9,4 - - 16 9 - - S 1009,2 16 0 0,0
20.10.2017 20:00:00 11,3 8,3 - - 16 9 - - SSW 1009,4 22 0 0,0
20.10.2017 19:00:00 11,6 7,1 - - 13 7 - - SW 1009,6 30 0 0,0
20.10.2017 18:00:00 12,9 6,7 - - 24 13 - - SW 1009,2 24 0 0,0
20.10.2017 17:00:00 14,2 6,9 - - 28 15 - - WSW 1008,8 35 48 0,0
20.10.2017 16:00:00 15,0 8,9 - - 22 12 - - WSW 1008,3 30 24 0,0
20.10.2017 15:00:00 14,5 9,3 - - 24 13 46 25 WSW 1007,8 35 0 0,0
20.10.2017 14:00:00 13,9 9,6 - - 29 16 48 26 WSW 1007,1 30 18 0,0
20.10.2017 13:00:00 13,9 10,0 - - 34 18 55 30 WSW 1006,3 28 0 0,0
20.10.2017 12:00:00 13,7 10,6 - - 28 15 48 26 WSW 1005,3 35 0 0,0
20.10.2017 11:00:00 13,3 10,9 - - 28 15 55 30 WSW 1004,3 40 0 0,0
20.10.2017 10:00:00 13,5 10,8 14,4 14,7 31 17 52 28 WSW 1003,1 45 6 0,0
20.10.2017 09:00:00 13,4 10,9 - - 31 17 46 25 WSW 1001,3 50 0 0,0
20.10.2017 08:00:00 13,1 11,1 - - 31 17 55 30 SW 999,8 50 0 0,6
20.10.2017 07:00:00 13,2 11,3 - - 31 17 54 29 SW 998,7 35 0 0,0
20.10.2017 06:00:00 12,8 11,6 - - 31 17 46 25 SSW 998,7 10 0 0,2
20.10.2017 05:00:00 12,9 10,9 - - 31 17 48 26 SSW 998,9 15 0 0,0
20.10.2017 04:00:00 13,0 10,5 - - 31 17 - - SSW 999,4 15 0 0,0
20.10.2017 03:00:00 13,4 10,9 - - 29 16 - - SSW 999,8 15 0 0,0
20.10.2017 02:00:00 14,1 11,8 - - 35 19 57 31 SSW 999,8 29 0 0,0
20.10.2017 01:00:00 14,3 13,0 - - 39 21 59 32 S 999,7 15 - 0,4
20.10.2017 00:00:00 14,4 12,8 - - 39 21 54 29 SSW 1000,4 9 0 0,6
19.10.2017 23:00:00 15,4 13,5 - - 34 18 52 28 SSW 1001,0 12 0 0,6
19.10.2017 22:00:00 16,4 13,5 - - 26 14 - - S 1001,4 25 0 0,0
19.10.2017 21:00:00 15,6 13,9 - - 24 13 - - SSW 1001,8 18 0 0,0
19.10.2017 20:00:00 16,2 14,0 - - 26 14 - - SSW 1002,2 19 0 0,0
19.10.2017 19:00:00 16,3 14,2 - - 22 12 - - S 1002,7 12 0 0,0
19.10.2017 18:00:00 16,4 13,9 - - 26 14 - - SSW 1002,7 14 0 0,0
19.10.2017 17:00:00 16,8 14,8 - - 22 12 - - S 1002,7 12 0 0,0
19.10.2017 16:00:00 17,0 14,7 - - 28 15 - - SSW 1002,9 12 0 0,0
19.10.2017 15:00:00 17,4 14,6 - - 35 19 50 27 S 1002,7 19 0 0,0
19.10.2017 14:00:00 17,1 14,5 - - 22 12 - - S 1003,0 15 0 0,0
19.10.2017 13:00:00 16,3 14,0 - - 21 11 - - SSE 1004,2 19 0 0,0
19.10.2017 12:00:00 15,8 14,2 - - 16 9 - - SE 1005,1 10 0 0,2
19.10.2017 11:00:00 - - - - 13 7 - - ESE - 11 0 0,0
19.10.2017 10:00:00 15,1 14,6 14,4 14,7 8 4 - - E 1006,2 6 0 0,0
19.10.2017 09:00:00 14,3 14,2 - - 8 4 - - E 1006,6 3,5 0 0,0
19.10.2017 08:00:00 13,9 13,9 - - 5 3 - - SSE 1006,8 3,6 0 0,0
19.10.2017 07:00:00 13,2 13,2 - - 4 2 - - SSE 1007,2 1,0 0 0,0
19.10.2017 06:00:00 13,6 13,6 - - 8 4 - - ESE 1007,7 1,2 0 0,0
19.10.2017 05:00:00 14,2 14,1 - - 8 4 - - ESE 1007,9 1,1 0 0,0
19.10.2017 04:00:00 12,5 12,3 - - 8 4 - - E 1008,7 0,2 0 0,0
19.10.2017 03:00:00 13,9 13,7 - - 5 3 - - SSE 1009,5 1,2 0 0,0
19.10.2017 02:00:00 14,2 13,9 - - 5 3 - - SSE 1009,6 1,7 0 0,0
19.10.2017 01:00:00 14,7 14,4 - - 13 7 - - SE 1009,8 2,3 - 0,0
19.10.2017 00:00:00 15,1 14,6 - - 15 8 - - SE 1010,1 3,1 0 0,0
18.10.2017 23:00:00 15,1 14,7 - - 9 5 - - SSE 1010,2 3,4 0 0,0
18.10.2017 22:00:00 14,5 14,3 - - 11 6 - - SE 1010,5 2,9 0 0,0
18.10.2017 21:00:00 14,5 14,1 - - 9 5 - - ESE 1010,6 2,3 0 0,0
18.10.2017 20:00:00 14,8 14,6 - - 11 6 - - ESE 1010,9 2,3 0 0,0
18.10.2017 19:00:00 14,8 14,4 - - 8 4 - - E 1010,7 1,9 0 0,0
18.10.2017 18:00:00 15,1 14,6 - - 5 3 - - ENE 1010,3 2,0 0 0,0
18.10.2017 17:00:00 15,1 14,5 - - 5 3 - - ESE 1010,5 1,7 0 0,0
18.10.2017 16:00:00 15,0 14,5 - - 8 4 - - ESE 1010,6 1,9 0 0,0
18.10.2017 15:00:00 14,9 14,4 - - 5 3 - - ESE 1010,9 2,0 0 0,0
18.10.2017 14:00:00 14,9 14,5 - - 13 7 - - ESE 1010,8 2,1 0 0,0
18.10.2017 13:00:00 14,9 14,5 - - 13 7 - - ESE 1011,4 1,7 0 0,6
18.10.2017 12:00:00 15,1 14,2 - - 18 10 - - E 1011,9 3,5 0 0,2
18.10.2017 11:00:00 15,1 13,8 - - 15 8 - - E 1012,1 5 0 0,0
18.10.2017 10:00:00 15,0 13,3 14,0 14,7 18 10 - - E 1012,2 7 0 0,0
18.10.2017 09:00:00 14,2 12,5 - - 13 7 - - ENE 1012,6 14 0 0,0
18.10.2017 08:00:00 14,2 11,4 - - 13 7 - - ENE 1012,6 18 0 0,0
18.10.2017 07:00:00 13,9 11,0 - - 13 7 - - ENE 1012,6 18 0 0,0
18.10.2017 06:00:00 13,2 10,6 - - 13 7 - - ENE 1013,0 18 0 0,0
18.10.2017 05:00:00 12,9 8,6 - - 11 6 - - ENE 1013,5 23 0 0,0
18.10.2017 04:00:00 12,4 9,0 - - 15 8 - - NE 1013,9 16 0 0,0
18.10.2017 03:00:00 12,1 8,7 - - 11 6 - - NNE 1014,8 18 0 0,0
18.10.2017 02:00:00 12,1 9,6 - - 9 5 - - N 1015,4 17 0 0,0
18.10.2017 01:00:00 11,2 9,7 - - 8 4 - - NE 1015,6 16 - 0,0
18.10.2017 00:00:00 9,8 8,9 - - 5 3 - - N 1016,2 16 0 0,0
17.10.2017 23:00:00 9,7 7,9 - - 4 2 - - N 1016,7 13 0 0,0
17.10.2017 22:00:00 10,1 8,2 - - 4 2 - - W 1017,2 17 0 0,0
17.10.2017 21:00:00 9,3 6,9 - - 2 1 - - SSW 1017,2 20 0 0,0
17.10.2017 20:00:00 10,5 7,8 - - 5 3 - - SSE 1017,5 23 0 0,0
17.10.2017 19:00:00 12,4 7,6 - - 5 3 - - SSW 1017,7 22 0 0,0
17.10.2017 18:00:00 13,9 6,4 - - 5 3 - - WSW 1017,8 21 0 0,0
17.10.2017 17:00:00 15,0 6,7 - - 8 4 - - WSW 1018,1 21 0 0,0
17.10.2017 16:00:00 14,8 6,3 - - 11 6 - - W 1018,4 26 48 0,0
17.10.2017 15:00:00 15,0 8,0 - - 18 10 - - SW 1018,9 22 30 0,0
17.10.2017 14:00:00 13,9 7,7 - - 11 6 - - SW 1019,6 18 0 0,0
17.10.2017 13:00:00 13,8 7,7 - - 11 6 - - WSW 1020,5 25 0 0,0
17.10.2017 12:00:00 13,8 7,8 - - 13 7 - - WSW 1020,9 20 0 0,0
17.10.2017 11:00:00 13,8 7,8 - - 15 8 - - WSW 1021,1 19 6 0,0
17.10.2017 10:00:00 13,6 8,3 14,7 14,7 15 8 - - WSW 1020,8 21 54 0,0
17.10.2017 09:00:00 12,4 8,1 - - 13 7 - - WSW 1020,6 16 6 0,0
17.10.2017 08:00:00 12,0 8,2 - - 15 8 - - SW 1020,1 15 0 0,0
17.10.2017 07:00:00 11,8 8,6 - - 18 10 - - SW 1019,6 13 0 0,0
17.10.2017 06:00:00 12,2 8,5 - - 15 8 - - SW 1019,4 12 0 0,0
17.10.2017 05:00:00 12,7 8,4 - - 16 9 - - WSW 1019,2 14 0 0,0
17.10.2017 04:00:00 13,2 8,9 - - 22 12 - - WSW 1019,4 13 0 0,0
17.10.2017 03:00:00 13,5 9,0 - - 22 12 - - SW 1019,2 13 0 0,0
17.10.2017 02:00:00 13,6 8,6 - - 21 11 - - SW 1019,2 12 0 0,0
17.10.2017 01:00:00 14,2 8,5 - - 24 13 46 25 WSW 1019,1 13 - 0,0
17.10.2017 00:00:00 14,7 9,5 - - 26 14 46 25 SW 1018,6 11 0 0,0
16.10.2017 23:00:00 14,8 9,4 - - 29 16 48 26 SW 1018,4 12 0 0,0
16.10.2017 22:00:00 15,1 9,6 - - 26 14 50 27 SW 1018,0 12 0 0,0
16.10.2017 21:00:00 15,7 10,2 - - 34 18 57 31 SW 1017,5 13 0 0,0
16.10.2017 20:00:00 16,6 10,1 - - 37 20 57 31 SW 1017,1 16 0 0,0
16.10.2017 19:00:00 17,0 9,9 - - 31 17 50 27 SW 1016,6 17 0 -
16.10.2017 18:00:00 18,1 11,4 - - 29 16 48 26 SW 1016,4 14 0 0,0
16.10.2017 17:00:00 19,2 14,3 - - 26 14 - - SW 1015,6 14 0 0,0
16.10.2017 16:00:00 20,3 15,1 - - 26 14 - - SW 1015,3 15 0 0,0
16.10.2017 15:00:00 21,5 15,2 - - 24 13 - - SW 1015,0 22 0 0,0
16.10.2017 14:00:00 21,4 14,9 - - 31 17 - - SW 1014,9 20 30 0,0
16.10.2017 13:00:00 21,3 14,8 - - 39 21 50 27 SSW 1014,8 19 60 0,0
16.10.2017 12:00:00 20,7 14,9 - - 29 16 - - S 1015,4 24 18 0,0
16.10.2017 11:00:00 18,8 15,4 - - 16 9 - - SE 1016,0 28 54 0,0
16.10.2017 10:00:00 17,9 15,5 14,7 14,7 16 9 - - ESE 1016,5 24 30 0,0
16.10.2017 09:00:00 17,2 15,6 - - 15 8 - - SE 1017,0 17 0 0,0
16.10.2017 08:00:00 16,9 15,3 - - 16 9 - - SE 1016,8 13 0 0,0
16.10.2017 07:00:00 17,3 15,1 - - 15 8 - - SSE 1016,5 15 0 0,0
16.10.2017 06:00:00 15,8 14,8 - - 5 3 - - S 1016,9 13 0 0,0
16.10.2017 05:00:00 16,0 15,1 - - 8 4 - - SSW 1016,7 14 0 0,0
16.10.2017 04:00:00 14,3 13,9 - - 8 4 - - S 1016,9 7 0 0,0
16.10.2017 03:00:00 15,0 14,5 - - 5 3 - - SW 1017,0 11 0 0,0
16.10.2017 02:00:00 15,8 14,9 - - 13 7 - - S 1017,1 9 0 0,0
16.10.2017 01:00:00 14,6 13,8 - - 4 2 - - SSW 1017,4 4,9 - 0,0
16.10.2017 00:00:00 15,6 14,2 - - 11 6 - - S 1017,5 8 0 0,0

tt = Température de l'air
td = dewpoint
tt -20cm = Température de l'air -20cm
tt -100cm = Température de l'air -100cm
ff = Vitesse du vent
fx = gusts
dd = Direction du vent
ppp = reduced air pressure
vv = visibility
sd = Ensoleillement
rr = Quantités de précipitations

stations d'obs. à proximité